• In Hungary
  • List of Countries
  • For 7 days
  • Water Temperature
  • Satellite Maps
  • Weather Map
  • News
  • Weather Widgets
  • user-avatar
    Login

    Hourly Weather Jerusalem

    Today, 21 November, Tuesday

    Time Temperature Precipitation Wind Pressure Humidity
    00:00 +13°C° 0.1 mm 3 mps 693 mmHg 66%
    01:00 +13°C° 0.1 mm 3 mps 693 mmHg 66%
    02:00 +12°C° 0.1 mm 4 mps 692 mmHg 66%
    03:00 +12°C° 0.2 mm 4 mps 692 mmHg 67%
    04:00 +12°C° 0.2 mm 4 mps 692 mmHg 68%
    05:00 +12°C° 0.2 mm 5 mps 692 mmHg 69%
    06:00 +12°C° 0.4 mm 5 mps 692 mmHg 69%
    07:00 +13°C° 0.4 mm 6 mps 693 mmHg 69%
    08:00 +13°C° 0.4 mm 6 mps 693 mmHg 69%
    09:00 +13°C° 0.4 mm 6 mps 693 mmHg 68%
    10:00 +14°C° 0.4 mm 7 mps 693 mmHg 67%
    11:00 +14°C° 0.4 mm 7 mps 693 mmHg 66%
    12:00 +14°C° 0.4 mm 7 mps 693 mmHg 65%
    13:00 +14°C° 0.4 mm 7 mps 693 mmHg 64%
    14:00 +14°C° 0.4 mm 7 mps 693 mmHg 63%
    15:00 +14°C° 0.1 mm 7 mps 693 mmHg 62%
    16:00 +12°C° 0.1 mm 7 mps 693 mmHg 61%
    17:00 +12°C° 0.1 mm 7 mps 693 mmHg 60%
    18:00 +11°C° 0 mm 6 mps 693 mmHg 61%
    19:00 +11°C° 0 mm 6 mps 693 mmHg 63%
    20:00 +10°C° 0 mm 6 mps 693 mmHg 64%
    21:00 +10°C° 0 mm 6 mps 693 mmHg 65%
    22:00 +10°C° 0 mm 6 mps 693 mmHg 65%
    23:00 +10°C° 0 mm 6 mps 694 mmHg 65%

    Tomorrow, 22 November, Wednesday

    Time Temperature Precipitation Wind Pressure Humidity
    00:00 +9°C° 0.1 mm 5 mps 694 mmHg 66%
    01:00 +9°C° 0.1 mm 5 mps 694 mmHg 66%
    02:00 +9°C° 0.1 mm 5 mps 693 mmHg 66%
    03:00 +9°C° 0.1 mm 5 mps 693 mmHg 66%
    04:00 +9°C° 0.1 mm 5 mps 693 mmHg 67%
    05:00 +10°C° 0.1 mm 4 mps 693 mmHg 67%
    06:00 +10°C° 0.1 mm 4 mps 694 mmHg 65%
    07:00 +11°C° 0.1 mm 4 mps 694 mmHg 63%
    08:00 +11°C° 0.1 mm 4 mps 694 mmHg 60%
    09:00 +12°C° 0.1 mm 5 mps 695 mmHg 58%
    10:00 +12°C° 0.1 mm 5 mps 695 mmHg 56%
    11:00 +13°C° 0.1 mm 5 mps 695 mmHg 54%
    12:00 +13°C° 0.1 mm 5 mps 695 mmHg 55%
    13:00 +13°C° 0.1 mm 5 mps 695 mmHg 55%
    14:00 +13°C° 0.1 mm 5 mps 694 mmHg 56%
    15:00 +12°C° 0.3 mm 4 mps 694 mmHg 59%
    16:00 +12°C° 0.3 mm 4 mps 694 mmHg 61%
    17:00 +11°C° 0.3 mm 3 mps 694 mmHg 64%
    18:00 +11°C° 0.2 mm 3 mps 695 mmHg 65%
    19:00 +12°C° 0.2 mm 2 mps 695 mmHg 66%
    20:00 +12°C° 0.2 mm 2 mps 695 mmHg 67%
    21:00 +10°C° 0.1 mm 2 mps 695 mmHg 68%
    22:00 +11°C° 0.1 mm 1 mps 695 mmHg 68%
    23:00 +11°C° 0.1 mm 1 mps 696 mmHg 69%

    Day after tomorrow, 23 November, Thursday

    Time Temperature Precipitation Wind Pressure Humidity
    00:00 +10°C° 0 mm 1 mps 695 mmHg 70%
    01:00 +10°C° 0 mm 1 mps 695 mmHg 71%
    02:00 +10°C° 0 mm 1 mps 695 mmHg 71%
    03:00 +10°C° 0 mm 1 mps 695 mmHg 72%
    04:00 +8°C° 0 mm 2 mps 695 mmHg 73%
    05:00 +8°C° 0 mm 2 mps 695 mmHg 74%
    06:00 +9°C° 0 mm 2 mps 696 mmHg 72%
    07:00 +9°C° 0 mm 2 mps 696 mmHg 69%
    08:00 +10°C° 0 mm 2 mps 697 mmHg 66%
    09:00 +12°C° 0 mm 2 mps 697 mmHg 61%
    10:00 +12°C° 0 mm 1 mps 697 mmHg 55%
    11:00 +13°C° 0 mm 1 mps 697 mmHg 50%
    12:00 +14°C° 0 mm 1 mps 697 mmHg 49%
    13:00 +14°C° 0 mm 1 mps 696 mmHg 48%
    14:00 +14°C° 0 mm 1 mps 696 mmHg 46%
    15:00 +14°C° 0 mm 1 mps 696 mmHg 48%
    16:00 +13°C° 0 mm 1 mps 696 mmHg 49%
    17:00 +13°C° 0 mm 1 mps 696 mmHg 51%
    18:00 +12°C° 0 mm 1 mps 696 mmHg 52%
    19:00 +12°C° 0 mm 1 mps 696 mmHg 54%
    20:00 +12°C° 0 mm 1 mps 697 mmHg 56%
    21:00 +11°C° 0 mm 1 mps 697 mmHg 57%
    22:00 +11°C° 0 mm 1 mps 697 mmHg 58%
    23:00 +11°C° 0 mm 1 mps 697 mmHg 60%

    24 November, Friday

    Time Temperature Precipitation Wind Pressure Humidity
    00:00 +10°C° 0 mm 1 mps 696 mmHg 61%
    01:00 +10°C° 0 mm 1 mps 696 mmHg 61%
    02:00 +10°C° 0 mm 1 mps 696 mmHg 62%
    03:00 +9°C° 0 mm 1 mps 696 mmHg 63%
    04:00 +9°C° 0 mm 1 mps 696 mmHg 63%
    05:00 +9°C° 0 mm 1 mps 696 mmHg 63%
    06:00 +9°C° 0 mm 2 mps 696 mmHg 60%
    07:00 +10°C° 0 mm 2 mps 697 mmHg 57%
    08:00 +12°C° 0 mm 2 mps 697 mmHg 53%
    09:00 +13°C° 0 mm 2 mps 698 mmHg 52%
    10:00 +14°C° 0 mm 1 mps 698 mmHg 51%
    11:00 +15°C° 0 mm 1 mps 698 mmHg 50%
    12:00 +15°C° 0 mm 1 mps 697 mmHg 50%
    13:00 +15°C° 0 mm 1 mps 697 mmHg 49%
    14:00 +15°C° 0 mm 1 mps 697 mmHg 48%
    15:00 +15°C° 0 mm 1 mps 697 mmHg 51%
    16:00 +14°C° 0 mm 1 mps 697 mmHg 53%
    17:00 +14°C° 0 mm 1 mps 697 mmHg 56%
    18:00 +14°C° 0 mm 1 mps 697 mmHg 58%
    19:00 +13°C° 0 mm 1 mps 697 mmHg 60%
    20:00 +13°C° 0 mm 1 mps 698 mmHg 63%
    21:00 +12°C° 0 mm 1 mps 698 mmHg 64%
    22:00 +12°C° 0 mm 1 mps 698 mmHg 65%
    23:00 +12°C° 0 mm 1 mps 698 mmHg 66%

    25 November, Saturday

    Time Temperature Precipitation Wind Pressure Humidity
    00:00 +10°C° 0 mm 2 mps 697 mmHg 67%
    01:00 +10°C° 0 mm 2 mps 697 mmHg 68%
    02:00 +10°C° 0 mm 2 mps 697 mmHg 68%
    03:00 +10°C° 0 mm 2 mps 697 mmHg 68%
    04:00 +10°C° 0 mm 2 mps 697 mmHg 68%
    05:00 +9°C° 0 mm 2 mps 697 mmHg 69%
    06:00 +10°C° 0 mm 2 mps 697 mmHg 64%
    07:00 +12°C° 0 mm 2 mps 698 mmHg 60%
    08:00 +12°C° 0 mm 3 mps 698 mmHg 56%
    09:00 +13°C° 0 mm 3 mps 698 mmHg 48%
    10:00 +14°C° 0 mm 3 mps 698 mmHg 41%
    11:00 +17°C° 0 mm 3 mps 698 mmHg 33%
    12:00 +17°C° 0 mm 3 mps 698 mmHg 31%
    13:00 +18°C° 0 mm 3 mps 697 mmHg 28%
    14:00 +18°C° 0 mm 2 mps 697 mmHg 26%
    15:00 +18°C° 0 mm 3 mps 697 mmHg 28%
    16:00 +17°C° 0 mm 3 mps 697 mmHg 29%
    17:00 +16°C° 0 mm 3 mps 696 mmHg 30%
    18:00 +16°C° 0 mm 3 mps 697 mmHg 31%
    19:00 +14°C° 0 mm 3 mps 697 mmHg 32%
    20:00 +14°C° 0 mm 3 mps 697 mmHg 32%
    21:00 +13°C° 0 mm 3 mps 697 mmHg 32%
    22:00 +13°C° 0 mm 3 mps 696 mmHg 32%
    23:00 +13°C° 0 mm 3 mps 696 mmHg 32%

    26 November, Sunday

    Time Temperature Precipitation Wind Pressure Humidity
    00:00 +12°C° 0 mm 3 mps 696 mmHg 33%
    01:00 +12°C° 0 mm 3 mps 696 mmHg 35%
    02:00 +12°C° 0 mm 3 mps 696 mmHg 36%
    03:00 +12°C° 0 mm 4 mps 696 mmHg 37%
    04:00 +11°C° 0 mm 4 mps 696 mmHg 37%
    05:00 +11°C° 0 mm 4 mps 696 mmHg 38%
    06:00 +11°C° 0 mm 4 mps 696 mmHg 36%
    07:00 +12°C° 0 mm 4 mps 696 mmHg 35%
    08:00 +13°C° 0 mm 5 mps 696 mmHg 33%
    09:00 +14°C° 0 mm 5 mps 696 mmHg 31%
    10:00 +15°C° 0 mm 5 mps 696 mmHg 28%
    11:00 +17°C° 0 mm 5 mps 697 mmHg 26%
    12:00 +18°C° 0 mm 4 mps 696 mmHg 27%
    13:00 +18°C° 0 mm 4 mps 696 mmHg 27%
    14:00 +19°C° 0 mm 4 mps 696 mmHg 28%
    15:00 +18°C° 0 mm 4 mps 696 mmHg 31%
    16:00 +17°C° 0 mm 3 mps 696 mmHg 34%
    17:00 +16°C° 0 mm 3 mps 696 mmHg 36%
    18:00 +15°C° 0 mm 4 mps 696 mmHg 39%
    19:00 +14°C° 0 mm 4 mps 696 mmHg 42%
    20:00 +13°C° 0 mm 4 mps 696 mmHg 45%
    21:00 +13°C° 0 mm 5 mps 696 mmHg 47%
    22:00 +13°C° 0 mm 5 mps 696 mmHg 49%
    23:00 +12°C° 0 mm 5 mps 696 mmHg 50%
    Show more